Location: Shannon
(40.5500°S, 175.4167°E)
Time: 22:00:38
(UTC+00:00)

CZ-2D R/B - Pass Details

Date: 17 November 2025
Orbit: 788 x 842 km, 98.9° (Epoch: 06 December)

Event Time Altitude Azimuth Distance (km) Brightness Sun altitude
Exits shadow 15:33:23 13° 277° (W) 2,223 3.9 -12.9°
Maximum altitude 15:33:59 13° 269° (W) 2,212 3.9 -12.8°
Drops below altitude 10° 15:36:19 10° 243° (WSW) 2,422 4.4 -12.5°
Sets 15:40:12 0° 215° (SW) 3,379 5.4 -11.9°
